GW3839 Weather Reports


time (UTC)temp
C
wind
direction
speed
KPH
gust
KPH
rain 1hr
cm
rain 24hr
cm
rain mn
cm
humidity
%
barometer
mb
20260906122428 21 11 0.0 0.0 0.00 0.00 0.00 95 1018.2
20260906121925 21 76 1.6 3.2 0.00 0.00 0.00 95 1018.0
20260906121421 21 56 1.6 1.6 0.00 0.00 0.00 95 1018.3
20260906120917 21 65 0.0 0.0 0.00 0.00 0.00 95 1018.0
20260906120412 21 67 0.0 0.0 0.00 0.00 0.00 95 1017.9
20260906115908 21 66 0.0 0.0 0.00 0.00 0.00 95 1017.9
20260906115404 21 72 1.6 1.6 0.00 0.00 0.00 95 1017.9
20260906114903 21 73 1.6 3.2 0.00 0.00 0.00 95 1017.8
20260906114358 21 74 3.2 3.2 0.00 0.00 0.00 95 1017.7
20260906113854 21 88 0.0 1.6 0.00 0.00 0.00 95 1017.8
20260906113352 21 86 1.6 3.2 0.00 0.00 0.00 95 1017.7
20260906112848 21 84 1.6 1.6 0.00 0.00 0.00 95 1017.6
20260906112343 21 88 0.0 0.0 0.00 0.00 0.00 96 1017.4
20260906111838 22 345 3.2 3.2 0.00 0.00 0.00 96 1017.7
20260906111337 22 328 3.2 3.2 0.00 0.00 0.00 96 1017.7
20260906110827 22 88 1.6 1.6 0.00 0.00 0.00 96 1017.7
20260906110323 22 86 0.0 0.0 0.00 0.00 0.00 96 1017.7
20260906105822 22 27 3.2 3.2 0.00 0.00 0.00 96 1017.4
20260906105318 21 63 0.0 0.0 0.00 0.00 0.00 96 1017.3
20260906104813 21 45 3.2 4.8 0.00 0.00 0.00 96 1017.2
20260906104311 21 74 0.0 0.0 0.00 0.00 0.00 96 1017.1
20260906103809 21 75 0.0 0.0 0.00 0.00 0.00 96 1016.9
20260906103303 21 82 0.0 1.6 0.00 0.00 0.00 97 1017.0
20260906102800 21 78 0.0 0.0 0.00 0.00 0.00 97 1017.2
20260906102258 21 151 1.6 1.6 0.00 0.00 0.00 97 1017.0
20260906101754 21 6 0.0 1.6 0.00 0.00 0.00 97 1017.2
20260906101248 21 143 1.6 1.6 0.00 0.00 0.00 97 1017.1
20260906100744 21 68 3.2 4.8 0.00 0.00 0.00 97 1017.2
20260906100243 21 81 3.2 3.2 0.00 0.00 0.00 97 1017.1
20260906095739 21 110 0.0 0.0 0.00 0.00 0.00 97 1017.0
20260906095234 21 93 0.0 0.0 0.00 0.00 0.00 97 1016.7
20260906094733 21 26 3.2 4.8 0.00 0.00 0.00 97 1017.1
20260906094228 21 43 0.0 1.6 0.00 0.00 0.00 97 1017.0
20260906093724 21 67 0.0 0.0 0.00 0.00 0.00 97 1016.9
20260906093214 21 37 3.2 4.8 0.00 0.00 0.00 96 1017.0
20260906092709 21 36 3.2 4.8 0.00 0.00 0.00 96 1017.0
20260906092208 21 274 3.2 3.2 0.00 0.00 0.00 96 1017.0
20260906091705 21 17 1.6 1.6 0.00 0.00 0.00 96 1016.8
20260906091201 21 83 0.0 0.0 0.00 0.00 0.00 96 1017.0
20260906090657 21 91 1.6 1.6 0.00 0.00 0.00 96 1016.9
20260906090155 21 65 4.8 9.7 0.00 0.00 0.00 95 1016.7
20260906085655 21 69 3.2 4.8 0.00 0.00 0.00 95 1016.9
20260906085149 21 67 0.0 1.6 0.00 0.00 0.00 95 1016.9
20260906084644 21 78 0.0 1.6 0.00 0.00 0.00 95 1016.7
20260906084143 21 39 1.6 3.2 0.00 0.00 0.00 95 1016.9
20260906083638 21 71 3.2 4.8 0.00 0.00 0.00 94 1016.9
20260906083133 21 60 3.2 3.2 0.00 0.00 0.00 94 1016.7
20260906082629 21 51 3.2 4.8 0.00 0.00 0.00 94 1017.0
20260906082124 21 357 4.8 4.8 0.00 0.00 0.00 94 1016.8
20260906081620 21 41 1.6 3.2 0.00 0.00 0.00 93 1016.9
20260906081115 21 41 3.2 3.2 0.00 0.00 0.00 93 1016.8
20260906080612 21 46 3.2 4.8 0.00 0.00 0.00 93 1016.8
20260906080107 21 58 1.6 3.2 0.00 0.00 0.00 93 1016.7
20260906075601 21 63 3.2 4.8 0.00 0.00 0.00 94 1016.8
20260906075055 21 46 3.2 4.8 0.00 0.00 0.00 94 1017.1
20260906074550 21 34 3.2 3.2 0.00 0.00 0.00 94 1017.1
20260906074043 21 55 1.6 3.2 0.00 0.00 0.00 94 1017.1
20260906073538 21 52 3.2 4.8 0.00 0.00 0.00 94 1017.0
20260906073034 21 36 3.2 4.8 0.00 0.00 0.00 93 1016.9
20260906072529 21 60 3.2 3.2 0.00 0.00 0.00 93 1017.0
20260906072026 21 72 1.6 3.2 0.00 0.00 0.00 93 1017.0
20260906071522 21 56 1.6 1.6 0.00 0.00 0.00 93 1016.9
20260906071017 21 69 1.6 1.6 0.00 0.00 0.00 93 1017.1
20260906070513 21 54 1.6 1.6 0.00 0.00 0.00 93 1016.8
20260906070008 21 58 1.6 1.6 0.00 0.00 0.00 92 1017.0
20260906065508 21 12 3.2 4.8 0.00 0.00 0.00 92 1016.9
20260906065003 21 64 1.6 1.6 0.00 0.00 0.00 92 1016.9
20260906064459 22 61 1.6 1.6 0.00 0.00 0.00 91 1017.0
20260906063954 22 81 1.6 3.2 0.00 0.00 0.00 91 1017.0
20260906063449 22 61 1.6 1.6 0.00 0.00 0.00 91 1016.9
20260906062943 22 50 4.8 4.8 0.00 0.00 0.00 90 1017.1
20260906062439 22 58 1.6 3.2 0.00 0.00 0.00 90 1016.9
20260906061933 22 59 3.2 3.2 0.00 0.00 0.00 90 1017.0
20260906061424 22 358 3.2 4.8 0.00 0.00 0.00 89 1017.1
20260906060918 22 82 1.6 1.6 0.00 0.00 0.00 88 1017.2
20260906060415 22 64 1.6 1.6 0.00 0.00 0.00 88 1016.9
20260906055912 22 81 3.2 3.2 0.00 0.00 0.00 88 1017.1
20260906055407 22 49 4.8 4.8 0.00 0.00 0.00 88 1016.8
20260906054902 22 65 1.6 3.2 0.00 0.00 0.00 89 1017.0
20260906054357 23 10 1.6 3.2 0.00 0.00 0.00 89 1016.9
20260906053853 23 76 0.0 0.0 0.00 0.00 0.00 89 1016.9
20260906053349 23 57 1.6 1.6 0.00 0.00 0.00 88 1016.8
20260906052844 23 59 3.2 3.2 0.00 0.00 0.00 88 1016.8
20260906052341 23 65 0.0 0.0 0.00 0.00 0.00 87 1016.8
20260906051837 23 65 3.2 3.2 0.00 0.00 0.00 87 1016.8
20260906051337 23 78 3.2 3.2 0.00 0.00 0.00 87 1016.6
20260906050833 23 48 0.0 1.6 0.00 0.00 0.00 87 1016.5
20260906050327 24 91 0.0 0.0 0.00 0.00 0.00 86 1016.7
20260906045826 24 57 1.6 1.6 0.00 0.00 0.00 85 1016.7
20260906045320 24 130 1.6 3.2 0.00 0.00 0.00 85 1016.8
20260906044816 24 52 3.2 6.4 0.00 0.00 0.00 86 1016.6
20260906044311 24 40 0.0 1.6 0.00 0.00 0.00 86 1016.5
20260906043807 25 331 4.8 6.4 0.00 0.00 0.00 86 1016.5
20260906043303 25 90 1.6 1.6 0.00 0.00 0.00 86 1016.4
20260906042757 25 9 4.8 6.4 0.00 0.00 0.00 85 1016.5
20260906042256 25 85 1.6 3.2 0.00 0.00 0.00 85 1016.5
20260906041752 25 101 1.6 3.2 0.00 0.00 0.00 85 1016.4
20260906041247 25 45 3.2 3.2 0.00 0.00 0.00 84 1016.5
20260906040742 25 62 3.2 3.2 0.00 0.00 0.00 84 1016.3
20260906040237 25 3 4.8 9.7 0.00 0.00 0.00 83 1016.2
20260906035733 25 83 3.2 4.8 0.00 0.00 0.00 83 1016.3
20260906035229 26 29 9.7 12.9 0.00 0.00 0.00 83 1016.0
20260906034728 26 31 3.2 4.8 0.00 0.00 0.00 85 1016.5
20260906034223 26 353 6.4 12.9 0.00 0.00 0.00 85 1016.0
20260906033719 26 62 0.0 0.0 0.00 0.00 0.00 85 1015.9
20260906033218 26 348 1.6 1.6 0.00 0.00 0.00 85 1016.1
20260906032716 26 14 3.2 4.8 0.00 0.00 0.00 84 1016.0
20260906032215 26 52 0.0 1.6 0.00 0.00 0.00 84 1015.8
20260906031710 27 72 3.2 4.8 0.00 0.00 0.00 83 1015.9
20260906031206 27 68 1.6 1.6 0.00 0.00 0.00 83 1015.9
20260906030706 27 48 3.2 6.4 0.00 0.00 0.00 83 1015.6
20260906030200 27 30 4.8 12.9 0.00 0.00 0.00 83 1015.6
20260906025659 27 71 3.2 4.8 0.00 0.00 0.00 82 1015.7
20260906025154 27 136 0.0 1.6 0.00 0.00 0.00 82 1015.5
20260906024648 28 125 1.6 3.2 0.00 0.00 0.00 82 1015.3
20260906024147 28 60 1.6 3.2 0.00 0.00 0.00 81 1015.1
20260906023644 28 85 0.0 0.0 0.00 0.00 0.00 81 1015.2
20260906023143 28 63 4.8 4.8 0.00 0.00 0.00 81 1015.2
20260906022638 28 36 3.2 4.8 0.00 0.00 0.00 81 1015.2
20260906022135 28 42 4.8 6.4 0.00 0.00 0.00 80 1015.0
20260906021630 28 53 4.8 6.4 0.00 0.00 0.00 80 1015.1
20260906021128 28 56 0.0 0.0 0.00 0.00 0.00 81 1015.0
20260906020623 28 41 1.6 1.6 0.00 0.00 0.00 81 1015.0
20260906020118 28 86 1.6 1.6 0.00 0.00 0.00 81 1014.9
20260906015613 28 76 1.6 1.6 0.00 0.00 0.00 81 1015.0
20260906015111 28 42 1.6 3.2 0.00 0.00 0.00 81 1014.8
20260906014606 28 51 1.6 3.2 0.00 0.00 0.00 81 1014.8
20260906014102 28 41 1.6 1.6 0.00 0.00 0.00 81 1014.8
20260906013557 28 92 0.0 0.0 0.00 0.00 0.00 81 1014.8
20260906013052 28 88 0.0 0.0 0.00 0.00 0.00 80 1014.6
20260906012548 28 97 0.0 0.0 0.00 0.00 0.00 80 1014.5
20260906012047 28 106 0.0 0.0 0.00 0.00 0.00 79 1014.5
20260906011543 28 104 0.0 0.0 0.00 0.00 0.00 78 1014.3
20260906011043 29 93 0.0 0.0 0.00 0.00 0.00 78 1014.2
20260906010538 29 100 0.0 0.0 0.00 0.00 0.00 77 1014.2
20260906010034 30 81 0.0 0.0 0.00 0.00 0.00 76 1014.2
20260906005534 30 101 0.0 0.0 0.00 0.00 0.00 76 1014.3
20260906005033 30 102 0.0 0.0 0.00 0.00 0.00 75 1014.3
20260906004532 30 79 0.0 1.6 0.00 0.00 0.00 74 1014.3
20260906004027 30 96 1.6 1.6 0.00 0.00 0.00 73 1014.3
20260906003522 30 98 0.0 0.0 0.00 0.00 0.00 73 1014.4
20260906003019 30 101 0.0 0.0 0.00 0.00 0.00 72 1014.2
20260906002513 31 106 0.0 0.0 0.00 0.00 0.00 70 1014.2
20260906002008 31 99 0.0 0.0 0.00 0.00 0.00 70 1013.8
20260906001504 31 58 0.0 0.0 0.00 0.00 0.00 69 1014.0
20260906000958 31 87 0.0 1.6 0.00 0.00 0.00 67 1014.0
20260906000455 32 55 0.0 0.0 0.00 0.00 0.00 66 1014.1
20260905235953 32 87 1.6 3.2 0.00 0.00 0.00 65 1014.2
20260905235448 32 79 0.0 1.6 0.00 0.00 0.00 65 1014.0
20260905234943 32 53 1.6 1.6 0.00 0.00 0.00 64 1014.1
20260905234438 33 122 1.6 3.2 0.00 0.00 0.00 63 1014.2
20260905233932 33 127 1.6 3.2 0.00 0.00 0.00 62 1014.1
20260905233428 33 67 1.6 1.6 0.00 0.00 0.00 61 1014.1
20260905232927 33 54 4.8 6.4 0.00 0.00 0.00 61 1014.0
20260905232423 33 53 3.2 3.2 0.00 0.00 0.00 61 1014.0
20260905231918 33 62 4.8 4.8 0.00 0.00 0.00 61 1014.0
20260905231414 34 30 1.6 3.2 0.00 0.00 0.00 60 1014.0
20260905230911 34 71 3.2 4.8 0.00 0.00 0.00 59 1013.8
20260905230408 35 350 4.8 6.4 0.00 0.00 0.00 57 1014.0
20260905225901 35 32 1.6 1.6 0.00 0.00 0.00 57 1013.9
20260905225356 35 134 4.8 6.4 0.00 0.00 0.00 57 1013.9
20260905224851 35 359 3.2 4.8 0.00 0.00 0.00 56 1013.9
20260905224341 35 56 3.2 3.2 0.00 0.00 0.00 56 1013.9
20260905223835 35 22 4.8 4.8 0.00 0.00 0.00 56 1013.8
20260905223333 35 136 3.2 3.2 0.00 0.00 0.00 57 1013.7
20260905222828 35 104 3.2 4.8 0.00 0.00 0.00 56 1013.6
20260905222327 35 35 3.2 3.2 0.00 0.00 0.00 56 1013.7
20260905221823 35 16 1.6 3.2 0.00 0.00 0.00 56 1013.7
20260905221320 35 159 1.6 3.2 0.00 0.00 0.00 56 1013.6
20260905220815 35 349 3.2 3.2 0.00 0.00 0.00 56 1013.7
20260905220311 35 20 3.2 4.8 0.00 0.00 0.00 53 1013.7
20260905215810 36 83 3.2 4.8 0.00 0.00 0.00 51 1013.6
20260905215306 35 86 1.6 3.2 0.00 0.00 0.00 50 1013.6
20260905214802 36 60 3.2 3.2 0.00 0.00 0.00 52 1013.9
20260905214258 36 339 3.2 3.2 0.00 0.00 0.00 50 1013.7
20260905213753 35 339 3.2 3.2 0.00 0.00 0.00 51 1013.9
20260905213249 35 358 3.2 4.8 0.00 0.00 0.00 51 1013.9
20260905212743 36 5 3.2 4.8 0.00 0.00 0.00 49 1013.7
20260905212238 36 21 4.8 6.4 0.00 0.00 0.00 48 1013.9
20260905211737 36 342 4.8 4.8 0.00 0.00 0.00 49 1014.0
20260905211233 36 92 3.2 4.8 0.00 0.00 0.00 50 1014.0
20260905210729 36 244 3.2 3.2 0.00 0.00 0.00 49 1014.0
20260905210229 36 13 3.2 3.2 0.00 0.00 0.00 48 1013.7
20260905205728 36 54 4.8 4.8 0.00 0.00 0.00 48 1014.0
20260905205222 36 25 0.0 1.6 0.00 0.00 0.00 48 1013.7
20260905204716 36 316 3.2 3.2 0.00 0.00 0.00 47 1014.0
20260905204212 36 352 3.2 4.8 0.00 0.00 0.00 48 1013.9
20260905203706 37 22 6.4 9.7 0.00 0.00 0.00 48 1013.9
20260905203202 36 32 3.2 3.2 0.00 0.00 0.00 48 1013.8
20260905202657 36 355 4.8 4.8 0.00 0.00 0.00 50 1013.9
20260905202152 36 33 1.6 3.2 0.00 0.00 0.00 49 1014.1
20260905201648 37 123 1.6 3.2 0.00 0.00 0.00 48 1014.2
20260905201147 37 2 6.4 9.7 0.00 0.00 0.00 47 1014.2
20260905200643 37 256 9.7 11.3 0.00 0.00 0.00 47 1014.3
20260905200138 36 261 6.4 11.3 0.00 0.00 0.00 48 1014.2
20260905195636 37 347 4.8 6.4 0.00 0.00 0.00 48 1014.3
20260905195131 37 1 1.6 1.6 0.00 0.00 0.00 47 1014.1
20260905194626 37 230 3.2 3.2 0.00 0.00 0.00 48 1014.2
20260905194126 36 69 3.2 3.2 0.00 0.00 0.00 50 1014.3
20260905193621 37 306 4.8 6.4 0.00 0.00 0.00 48 1014.2
20260905193116 36 153 3.2 4.8 0.00 0.00 0.00 49 1014.2
20260905192612 36 150 1.6 1.6 0.00 0.00 0.00 51 1014.4
20260905192107 36 240 3.2 3.2 0.00 0.00 0.00 49 1014.4
20260905191606 36 334 9.7 12.9 0.00 0.00 0.00 50 1014.6
20260905191105 35 113 0.0 0.0 0.00 0.00 0.00 52 1014.5
20260905190603 36 346 4.8 6.4 0.00 0.00 0.00 51 1014.5
20260905185601 37 339 3.2 4.8 0.00 0.00 0.00 49 1014.6
20260905185056 36 275 8.0 11.3 0.00 0.00 0.00 50 1014.8
20260905184551 36 232 3.2 4.8 0.00 0.00 0.00 50 1014.9
20260905184049 36 336 3.2 4.8 0.00 0.00 0.00 50 1014.9
20260905183543 36 58 0.0 1.6 0.00 0.00 0.00 50 1014.9
20260905183038 36 354 3.2 4.8 0.00 0.00 0.00 49 1015.1
20260905182532 36 1 4.8 6.4 0.00 0.00 0.00 49 1015.2
20260905182026 36 92 1.6 1.6 0.00 0.00 0.00 50 1015.0
20260905181521 36 171 3.2 3.2 0.00 0.00 0.00 49 1015.0
20260905181020 37 60 1.6 3.2 0.00 0.00 0.00 48 1015.1
20260905180515 36 216 1.6 3.2 0.00 0.00 0.00 48 1015.3
20260905180011 36 344 4.8 6.4 0.00 0.00 0.00 49 1015.2
20260905175510 36 37 11.3 14.5 0.00 0.00 0.00 49 1015.3
20260905175006 36 344 3.2 3.2 0.00 0.00 0.00 49 1015.2
20260905174501 36 313 4.8 4.8 0.00 0.00 0.00 48 1015.3
20260905173957 36 293 3.2 4.8 0.00 0.00 0.00 49 1015.4
20260905173453 36 339 3.2 3.2 0.00 0.00 0.00 49 1015.3
20260905172948 36 16 4.8 6.4 0.00 0.00 0.00 48 1015.2
20260905172446 36 8 3.2 3.2 0.00 0.00 0.00 50 1015.5
20260905171942 35 61 3.2 3.2 0.00 0.00 0.00 51 1015.5
20260905171438 36 45 4.8 4.8 0.00 0.00 0.00 50 1015.5
20260905170934 36 322 4.8 6.4 0.00 0.00 0.00 51 1015.7
20260905170430 36 324 1.6 3.2 0.00 0.00 0.00 52 1015.6
20260905165929 35 342 3.2 3.2 0.00 0.00 0.00 53 1015.6
20260905165425 36 46 1.6 1.6 0.00 0.00 0.00 51 1015.5
20260905164920 36 82 0.0 0.0 0.00 0.00 0.00 51 1015.7
20260905164414 35 61 4.8 6.4 0.00 0.00 0.00 52 1015.7
20260905163909 35 304 3.2 4.8 0.00 0.00 0.00 51 1015.7
20260905163406 35 83 3.2 3.2 0.00 0.00 0.00 53 1015.7
20260905162902 36 100 0.0 1.6 0.00 0.00 0.00 52 1015.7
20260905162402 36 49 3.2 4.8 0.00 0.00 0.00 51 1016.0
20260905161856 35 128 1.6 1.6 0.00 0.00 0.00 53 1015.9
20260905161355 35 251 3.2 4.8 0.00 0.00 0.00 54 1015.8
20260905160854 35 158 1.6 1.6 0.00 0.00 0.00 54 1015.9
20260905160348 35 229 3.2 3.2 0.00 0.00 0.00 54 1015.9
20260905155843 35 315 1.6 3.2 0.00 0.00 0.00 54 1015.9
20260905155343 34 217 4.8 4.8 0.00 0.00 0.00 56 1015.6
20260905154842 34 246 6.4 6.4 0.00 0.00 0.00 56 1016.0
20260905154337 34 203 3.2 3.2 0.00 0.00 0.00 56 1015.9
20260905153833 33 126 0.0 1.6 0.00 0.00 0.00 56 1015.7
20260905153330 33 221 4.8 6.4 0.00 0.00 0.00 57 1016.0
20260905152824 33 72 1.6 1.6 0.00 0.00 0.00 57 1015.8
20260905152323 33 273 3.2 4.8 0.00 0.00 0.00 58 1015.9
20260905151818 33 242 3.2 3.2 0.00 0.00 0.00 57 1015.8
20260905151313 33 211 1.6 1.6 0.00 0.00 0.00 59 1015.8
20260905150808 33 223 3.2 3.2 0.00 0.00 0.00 58 1015.7
20260905150307 32 119 0.0 1.6 0.00 0.00 0.00 61 1015.8
20260905145804 32 67 1.6 3.2 0.00 0.00 0.00 60 1015.9
20260905145259 32 264 4.8 6.4 0.00 0.00 0.00 59 1015.9
20260905144758 32 333 1.6 1.6 0.00 0.00 0.00 61 1015.9
20260905144254 31 241 4.8 4.8 0.00 0.00 0.00 59 1015.7
20260905143752 31 256 6.4 6.4 0.00 0.00 0.00 61 1015.8
20260905143247 31 244 6.4 9.7 0.00 0.00 0.00 62 1015.9
20260905142745 31 237 3.2 4.8 0.00 0.00 0.00 65 1015.9
20260905142240 31 252 4.8 4.8 0.00 0.00 0.00 64 1015.8
20260905141736 31 238 4.8 4.8 0.00 0.00 0.00 65 1016.0
20260905141232 30 192 3.2 3.2 0.00 0.00 0.00 66 1015.9
20260905140727 31 219 3.2 3.2 0.00 0.00 0.00 64 1015.9
20260905140221 31 183 1.6 1.6 0.00 0.00 0.00 67 1015.9
20260905135721 30 151 1.6 3.2 0.00 0.00 0.00 69 1015.8
20260905135217 30 221 1.6 3.2 0.00 0.00 0.00 70 1016.0
20260905134716 29 152 1.6 3.2 0.00 0.00 0.00 71 1015.9
20260905134215 28 147 1.6 1.6 0.00 0.00 0.00 74 1016.0
20260905133711 28 179 3.2 3.2 0.00 0.00 0.00 74 1016.0
20260905133211 28 152 1.6 1.6 0.00 0.00 0.00 76 1016.2
20260905132709 27 163 3.2 3.2 0.00 0.00 0.00 77 1016.0
20260905132205 27 197 3.2 3.2 0.00 0.00 0.00 80 1015.9
20260905131700 26 180 1.6 3.2 0.00 0.00 0.00 80 1015.9
20260905131155 26 167 1.6 1.6 0.00 0.00 0.00 83 1016.1
20260905130650 25 197 3.2 3.2 0.00 0.00 0.00 84 1016.1
20260905130149 25 193 1.6 1.6 0.00 0.00 0.00 85 1016.0
20260905125644 25 144 0.0 0.0 0.00 0.00 0.00 87 1015.9
20260905125140 24 142 0.0 0.0 0.00 0.00 0.00 89 1015.9
20260905124636 23 141 0.0 0.0 0.00 0.00 0.00 89 1015.8
20260905124132 23 141 0.0 0.0 0.00 0.00 0.00 90 1015.7
20260905123627 23 142 0.0 1.6 0.00 0.00 0.00 91 1015.6
20260905123124 23 131 0.0 0.0 0.00 0.00 0.00 91 1015.8